FENGYUN 1C DEB, 29966

Orbit data source: Space-Track

FENGYUN 1C DEB, 29966 is space debris in SSO originally from a launch on Mon, 10 May 1999 UTC launched from the Taiyaun Space Center, China (TSC). Fengyun 1C debris stems from the Chinese weather satellite Fengyun-1C, which was intentionally destroyed by a Chinese anti-satellite missile in 2007. This event dramatically increased the amount of space debris, with thousands of trackable fragments posing hazards to satellites and human spaceflight. The Fengyun 1C debris cloud has become a focal point in discussions about space sustainability and the need for international regulations to prevent the creation of new debris.

Loading next visibility...
Identifier
29966, 1999-025KQ
Orbit
SSO
Country
Flag of CNCN / PRC
Related business
Manufacturer
Unknown
Mission
Spacecraft
Bus & Motor
Unknown
Mass
Unknown
Launch date (UTC)
1999-05-10 (27 years ago)
Launch vehicle
Unknown
Launch site
Taiyaun Space Center, China (TSC)
Object type
Payload
Rocket body
Debris
Shape & HBR
Unknown shape, 0.1 m
Radar Cross Section
Medium (>0.1 m² and <1 m²)

Expand to show TLE details & history
Last TLE update: 1 week ago

TLE from 1 week ago
0 FENGYUN 1C DEB
1 29966U 99025KQ  26154.86254664  .00000662  00000-0  29606-3 0  9996
2 29966  99.4753  20.9727 0038563 211.7611 148.1240 14.26057353  5104
Epoch: 2026-06-03T20:42Z
TLE epoch observation values (Epoch: 2026-06-03T20:42:04.029Z)
Latitude
-0.00003°
Longitude
178.14084°
Altitude
831.394 km
Speed
7.425 km/s
True Right ascension
01h 23m 53s
True Declination
0° 00' 00"
Sunlit
Object was in daylight at epoch
Visualization orbit readout
Latitude
Unknown
Longitude
Unknown
Altitude
Unknown
Speed
Unknown
Apparent Right ascension
Unknown
Apparent Declination
Unknown
Sunlit
N/A
Visualization observer readout
Local Sidereal Time
00:47:35
Azimuth
Unknown
Elevation
Unknown
Doppler factor
Unknown
Orbital elements
Apogee altitude
829.818 km
Perigee altitude
774.439 km
Semi-major axis
7,180.266 km
Eccentricity
0.00386
Inclination
99.4753°
RAAN
20.9727°
Arg. of periapsis
211.7611°
True anomaly
148.35641°
Mean anomaly
148.124°
Eccentric anomaly
148.2403°
Mean motion
3.56724 °/min
Orbital period
100.92 mins
BSTAR
0.00029606
Loading maneuver chart data...
Computing Atmospheric mass density...
Loading historical data...
Loading historical data...
Loading historical data...
Loading historical data...
Loading historical data...
Loading historical data...
Loading historical data...

Documentation

Showing up to 5 results
|